Address 0x42b0ac48d20f8580a957148a6442f430dbc13c71 2

 
Txn Hash Method
Block
From
To
Value [Txn Fee]
0x4cc499706e12a1805f55b9f6862f67b119de55fc2ff397539514d853a718f43fExit266616152022-09-25 21:14:412 days 8 hrs ago0x42b0ac48d20f8580a957148a6442f430dbc13c71OUT Radiant: Multi Fee Distribution0 ETH0.00004234
0x2ffb21a8a2bcde0cb17726f88ef9d72c11cdc878242fb088183274ee820add45Claim266615422022-09-25 21:13:522 days 8 hrs ago0x42b0ac48d20f8580a957148a6442f430dbc13c71OUT Radiant: Chef Incentives Controller0 ETH0.00008733
0x9c5ac2f554cf5f77e9b4bb302acb9ccb34bcf6568b2c2b405e884b62c2df69b8Harvest All266609492022-09-25 21:07:482 days 8 hrs ago0x42b0ac48d20f8580a957148a6442f430dbc13c71OUT 0xa0a89db1c899c49f98e6326b764bafcf167fc2ce0 ETH0.00008777
0xf8a7c50cf6d81b9e2cb513683660d3a5443a9efaf15efeab60d32c9f64a55aedHarvest All251653202022-09-18 19:26:329 days 10 hrs ago0x42b0ac48d20f8580a957148a6442f430dbc13c71OUT 0xa0a89db1c899c49f98e6326b764bafcf167fc2ce0 ETH0.00010143
0x0c4e06e91543ec2f4183cfdfd2c18efaf89e7d9203451412fda704340b5ac036Claim251652182022-09-18 19:25:109 days 10 hrs ago0x42b0ac48d20f8580a957148a6442f430dbc13c71OUT Radiant: Chef Incentives Controller0 ETH0.00013524
0x14d918e58e164f9195274071800bb0e5e802745be03b8c319db1a2e082f0a703Swap251634052022-09-18 19:07:159 days 10 hrs ago0x42b0ac48d20f8580a957148a6442f430dbc13c71OUT0x9dd329f5411466d9e0c488ff72519ca9fef0cb400 ETH0.00005521
0x17a4ed4de122748019d15536b66332c14a0be2134e32093377fcdda30751f197Approve251633012022-09-18 19:06:009 days 10 hrs ago0x42b0ac48d20f8580a957148a6442f430dbc13c71OUTSynapse: nUSD0 ETH0.00003075
0x5487a98b8bac8b628aac18ef786bef655eb55a2c8c541906ed220990dd197426Swap251632392022-09-18 19:05:169 days 10 hrs ago0x42b0ac48d20f8580a957148a6442f430dbc13c71OUT0x9dd329f5411466d9e0c488ff72519ca9fef0cb400 ETH0.00005652
0x77270d4b37d0104ccc35ee59201190499a6f70491622d849ee46f585f809b7cbApprove251630682022-09-18 19:03:429 days 10 hrs ago0x42b0ac48d20f8580a957148a6442f430dbc13c71OUT 0xfd086bc7cd5c481dcc9c85ebe478a1c0b69fcbb90 ETH0.00003122
0x66dae12c28a3eb40cd6a508ea481f7cddf63f488dfc688613c04c2837e2bc1a3Remove Liquidity251629802022-09-18 19:02:569 days 10 hrs ago0x42b0ac48d20f8580a957148a6442f430dbc13c71OUT0x9dd329f5411466d9e0c488ff72519ca9fef0cb400 ETH0.00006941
0x099e830caaf81c91f4ea46dea11c05eb290985e88ed6979b1c21bfdbd76330dcApprove251627812022-09-18 19:01:209 days 10 hrs ago0x42b0ac48d20f8580a957148a6442f430dbc13c71OUT0xcfd72be67ee69a0dd7cf0f846fc0d98c33d60f160 ETH0.00003259
0xdde0fe3445f3e99b2957bc258199ce7440d04c6770aebe85133ef545e36048e2Withdraw251625642022-09-18 19:00:009 days 10 hrs ago0x42b0ac48d20f8580a957148a6442f430dbc13c71OUT Synapse: MiniChef0 ETH0.00004176
0xff3595cf8a123af9d7360e12d6ddaf8337b9ce976b6360eef2adcac68ca29487Deposit243348722022-09-13 2:19:3115 days 3 hrs ago0x42b0ac48d20f8580a957148a6442f430dbc13c71OUT 0xa0a89db1c899c49f98e6326b764bafcf167fc2ce0 ETH0.00011201
0xa3ffcfc3d09d39e07bc243792cd670613cfc392741e0b15996f75ff1ccfebed1Approve243347522022-09-13 2:18:1615 days 3 hrs ago0x42b0ac48d20f8580a957148a6442f430dbc13c71OUTTreasure DAO: Magic Token0 ETH0.00001182
0xe15532151e874e91f105676ac8432a7990169c0360204831dce9184292d40f89Multicall243343352022-09-13 2:14:3715 days 3 hrs ago0x42b0ac48d20f8580a957148a6442f430dbc13c71OUT Uniswap V3: Router 20 ETH0.00003896
0x5db8ffdf0334470b9e2544e2671e5b00c390e3ac49e80fb199b59dec6ff14cc7Approve243342832022-09-13 2:14:0715 days 3 hrs ago0x42b0ac48d20f8580a957148a6442f430dbc13c71OUT 0xff970a61a04b1ca14834a43f5de4533ebddb5cc80 ETH0.00001219
0xa3728a74ed67de6d04f43941ec6d647f8711fd25cbd0fe5195437764c186dd53Swap243338702022-09-13 2:11:1615 days 3 hrs ago0x42b0ac48d20f8580a957148a6442f430dbc13c71OUT 0x10541b07d8ad2647dc6cd67abd4c03575dade2610 ETH0.00002509
0xcb293cc7e96fc4dee2eb5da388f4249ee2493d96e8231eaac76bee687a032d6cApprove243337892022-09-13 2:10:3015 days 3 hrs ago0x42b0ac48d20f8580a957148a6442f430dbc13c71OUT Hop Protocol: hUSDC Token0 ETH0.00001132
0xf9bfdea20b6b62f8d3a0d7a60ff1dfb56f7f1333a3e216f7920d61f132ef9265Remove Liquidity243336902022-09-13 2:09:2315 days 3 hrs ago0x42b0ac48d20f8580a957148a6442f430dbc13c71OUT 0x10541b07d8ad2647dc6cd67abd4c03575dade2610 ETH0.00002606
0x5c83e4a56cfb713c051d02fc00aef8ffd999ef0f0818f778fd7c3fd5fad21735Approve243336292022-09-13 2:08:4315 days 3 hrs ago0x42b0ac48d20f8580a957148a6442f430dbc13c71OUT0xb67c014fa700e69681a673876eb8bafaa36bff710 ETH0.00001132
0x747f6673a55c6d6bfc092ed7fcc6cc486a4d9b24f00391cddba8328d2ca1105bClaim243334302022-09-13 2:07:0615 days 3 hrs ago0x42b0ac48d20f8580a957148a6442f430dbc13c71OUT Radiant: Chef Incentives Controller0 ETH0.00008731
0xe13597ae2db36513527ff51ed83a9534b2a4c6f1eea1a6b15a1244577491d8c6Harvest243333382022-09-13 2:06:0815 days 3 hrs ago0x42b0ac48d20f8580a957148a6442f430dbc13c71OUT Synapse: MiniChef0 ETH0.00001666
0xfa8f27e29338e686ffdae1ae4a2d484bbe7d87618fad1e242fffc52c8db75c4bDeposit203492802022-08-15 22:11:5643 days 7 hrs ago0x42b0ac48d20f8580a957148a6442f430dbc13c71OUT Synapse: MiniChef0 ETH0.000126852044 ETH
0xad9c7ee5490a4a62e85ee367faa76628401d76949fe0006f501bd709b35e83e2Approve203492702022-08-15 22:11:5643 days 7 hrs ago0x42b0ac48d20f8580a957148a6442f430dbc13c71OUT0xcfd72be67ee69a0dd7cf0f846fc0d98c33d60f160 ETH0.000119660569 ETH
0x752c96b84a1e91b0ead8c5bea81507d952d1e472e6ae529ce646002572c0ce59Add Liquidity203492392022-08-15 22:11:1243 days 7 hrs ago0x42b0ac48d20f8580a957148a6442f430dbc13c71OUT0x9dd329f5411466d9e0c488ff72519ca9fef0cb400 ETH0.000133566179 ETH
[ Download CSV Export 
Latest 2 internal transactions
Parent Txn Hash Block From To Value
0xc233be9179ae14989c9e96188c6041a9743a944e0ea2b9789863d1064ea26960203488772022-08-15 22:02:3243 days 7 hrs ago CAP Finance: ETH Pool0x42b0ac48d20f8580a957148a6442f430dbc13c710.010324583759843528 ETH
0x9f2cb542f3dc79ed4b559cd93e71637fdae7eabe4d55b77f4ad392355484da62183406042022-07-23 4:22:2167 days 1 hr ago 0x33ceb27b39d2bb7d2e61f7564d3df293440204170x42b0ac48d20f8580a957148a6442f430dbc13c710.029984404851818885 ETH
[ Download CSV Export 
Loading

Contract Name:
0 ETH

Compiler Version
0

Optimization Enabled:
0 ETH

Other Settings:
-NA-
Block Transaction Gas Used Reward
Age Block Fee Address BC Fee Address Voting Power Jailed Incoming
Block Uncle Number Difficulty Gas Used Reward
Loading
Make sure to use the "Vote Down" button for any spammy posts, and the "Vote Up" for interesting conversations.